When you browse on this site, cookies collect data to enhance your experience and personalize the content and advertising you see.
Visit our Privacy Policy to learn more. By continuing to use the site, you agree to this use of cookies and data.
  • In Hungary
  • List of Countries
  • For 7 days
  • Water Temperature
  • Weather Map
  • News
  • Weather Widgets
  • user-avatar
    Login

    Hourly Weather Novoaleksandrovka

    Today, 26 January, Sunday

    Time Temperature Precipitation Wind Pressure Humidity
    00:00 -1°C° 0.4 mm 3 mps 740 mmHg 98%
    01:00 -1°C° 1.4 mm 3 mps 739 mmHg 98%
    02:00 -1°C° 1.4 mm 3 mps 739 mmHg 98%
    03:00 -1°C° 0 mm 3 mps 738 mmHg 98%
    04:00 -2°C° 0.7 mm 3 mps 738 mmHg 97%
    05:00 -4°C° 0.7 mm 3 mps 738 mmHg 96%
    06:00 -4°C° 0.7 mm 4 mps 738 mmHg 95%
    07:00 -5°C° 0.7 mm 5 mps 739 mmHg 95%
    08:00 -6°C° 0.7 mm 6 mps 740 mmHg 94%
    09:00 -6°C° 0 mm 6 mps 740 mmHg 93%
    10:00 -5°C° 0.1 mm 6 mps 741 mmHg 93%
    11:00 -5°C° 0.1 mm 6 mps 742 mmHg 93%
    12:00 -5°C° 0.1 mm 6 mps 743 mmHg 93%
    13:00 -6°C° 0.2 mm 7 mps 744 mmHg 93%
    14:00 -6°C° 0.2 mm 7 mps 745 mmHg 93%
    15:00 -6°C° 0 mm 7 mps 746 mmHg 94%
    16:00 -6°C° 0.1 mm 6 mps 747 mmHg 91%
    17:00 -9°C° 0.1 mm 6 mps 748 mmHg 89%
    18:00 -11°C° 0.1 mm 5 mps 750 mmHg 87%
    19:00 -11°C° 0 mm 5 mps 750 mmHg 88%
    20:00 -11°C° 0 mm 5 mps 751 mmHg 89%
    21:00 -11°C° 0 mm 5 mps 751 mmHg 90%
    22:00 -12°C° 0 mm 5 mps 752 mmHg 91%
    23:00 -11°C° 0 mm 4 mps 752 mmHg 91%

    Tomorrow, 27 January, Monday

    Time Temperature Precipitation Wind Pressure Humidity
    00:00 -12°C° 0 mm 4 mps 753 mmHg 92%
    01:00 -11°C° 0 mm 4 mps 752 mmHg 92%
    02:00 -11°C° 0 mm 4 mps 752 mmHg 92%
    03:00 -10°C° 0 mm 4 mps 752 mmHg 92%
    04:00 -10°C° 0.1 mm 5 mps 751 mmHg 93%
    05:00 -10°C° 0.1 mm 5 mps 751 mmHg 93%
    06:00 -9°C° 0.1 mm 6 mps 750 mmHg 94%
    07:00 -8°C° 0.5 mm 7 mps 749 mmHg 94%
    08:00 -8°C° 0.5 mm 8 mps 748 mmHg 94%
    09:00 -7°C° 0.5 mm 8 mps 747 mmHg 94%
    10:00 -6°C° 0.1 mm 9 mps 747 mmHg 95%
    11:00 -4°C° 0.1 mm 9 mps 747 mmHg 95%
    12:00 -3°C° 0.1 mm 10 mps 747 mmHg 96%
    13:00 -4°C° 0.1 mm 9 mps 747 mmHg 91%
    14:00 -5°C° 0.1 mm 9 mps 748 mmHg 85%
    15:00 -6°C° 0.1 mm 8 mps 749 mmHg 80%
    16:00 -8°C° 0 mm 7 mps 751 mmHg 80%
    17:00 -11°C° 0 mm 7 mps 752 mmHg 81%
    18:00 -11°C° 0 mm 6 mps 754 mmHg 82%
    19:00 -13°C° 0 mm 5 mps 755 mmHg 83%
    20:00 -14°C° 0 mm 5 mps 756 mmHg 85%
    21:00 -15°C° 0 mm 4 mps 757 mmHg 87%
    22:00 -16°C° 0 mm 4 mps 758 mmHg 88%
    23:00 -16°C° 0 mm 3 mps 759 mmHg 89%

    Day after tomorrow, 28 January, Tuesday

    Time Temperature Precipitation Wind Pressure Humidity
    00:00 -18°C° 0 mm 3 mps 759 mmHg 90%
    01:00 -17°C° 0 mm 2 mps 760 mmHg 91%
    02:00 -18°C° 0 mm 2 mps 761 mmHg 92%
    03:00 -19°C° 0 mm 2 mps 762 mmHg 93%
    04:00 -17°C° 0 mm 1 mps 762 mmHg 93%
    05:00 -17°C° 0 mm 1 mps 763 mmHg 93%
    06:00 -18°C° 0 mm 1 mps 763 mmHg 93%
    07:00 -17°C° 0 mm 1 mps 764 mmHg 92%
    08:00 -16°C° 0 mm 0 mps 764 mmHg 91%
    09:00 -16°C° 0 mm 0 mps 765 mmHg 90%
    10:00 -15°C° 0 mm 1 mps 765 mmHg 89%
    11:00 -14°C° 0 mm 1 mps 765 mmHg 88%
    12:00 -13°C° 0 mm 1 mps 765 mmHg 87%
    13:00 -13°C° 0 mm 1 mps 765 mmHg 88%
    14:00 -15°C° 0 mm 2 mps 765 mmHg 89%
    15:00 -15°C° 0 mm 2 mps 765 mmHg 91%
    16:00 -15°C° 0 mm 2 mps 765 mmHg 90%
    17:00 -17°C° 0 mm 3 mps 766 mmHg 90%
    18:00 -17°C° 0 mm 3 mps 766 mmHg 89%
    19:00 -17°C° 0 mm 3 mps 766 mmHg 89%
    20:00 -16°C° 0 mm 3 mps 766 mmHg 89%
    21:00 -17°C° 0 mm 4 mps 766 mmHg 88%
    22:00 -17°C° 0 mm 4 mps 766 mmHg 88%
    23:00 -17°C° 0 mm 4 mps 766 mmHg 89%

    29 January, Wednesday

    Time Temperature Precipitation Wind Pressure Humidity
    00:00 -17°C° 0 mm 4 mps 766 mmHg 89%
    01:00 -17°C° 0.1 mm 4 mps 766 mmHg 90%
    02:00 -17°C° 0.1 mm 4 mps 766 mmHg 91%
    03:00 -16°C° 0.1 mm 4 mps 766 mmHg 92%
    04:00 -17°C° 0 mm 5 mps 765 mmHg 92%
    05:00 -17°C° 0 mm 5 mps 765 mmHg 91%
    06:00 -17°C° 0 mm 5 mps 765 mmHg 91%
    07:00 -15°C° 0 mm 5 mps 765 mmHg 90%
    08:00 -15°C° 0 mm 5 mps 765 mmHg 90%
    09:00 -15°C° 0 mm 5 mps 765 mmHg 90%
    10:00 -15°C° 0 mm 5 mps 765 mmHg 89%
    11:00 -14°C° 0 mm 5 mps 765 mmHg 88%
    12:00 -14°C° 0 mm 5 mps 765 mmHg 87%
    13:00 -14°C° 0 mm 5 mps 765 mmHg 87%
    14:00 -14°C° 0 mm 5 mps 765 mmHg 87%
    15:00 -14°C° 0 mm 4 mps 765 mmHg 87%
    16:00 -14°C° 0 mm 4 mps 765 mmHg 87%
    17:00 -15°C° 0 mm 4 mps 765 mmHg 87%
    18:00 -16°C° 0 mm 4 mps 764 mmHg 87%
    19:00 -16°C° 0 mm 4 mps 764 mmHg 88%
    20:00 -16°C° 0 mm 4 mps 764 mmHg 88%
    21:00 -16°C° 0 mm 4 mps 764 mmHg 89%
    22:00 -15°C° 0 mm 4 mps 764 mmHg 90%
    23:00 -14°C° 0 mm 4 mps 763 mmHg 92%

    30 January, Thursday

    Time Temperature Precipitation Wind Pressure Humidity
    00:00 -14°C° 0 mm 4 mps 763 mmHg 93%
    01:00 -13°C° 0.2 mm 5 mps 763 mmHg 93%
    02:00 -12°C° 0.2 mm 5 mps 762 mmHg 94%
    03:00 -11°C° 0.2 mm 5 mps 762 mmHg 94%
    04:00 -10°C° 0.2 mm 5 mps 762 mmHg 94%
    05:00 -7°C° 0.2 mm 5 mps 761 mmHg 94%
    06:00 -6°C° 0.2 mm 5 mps 761 mmHg 94%
    07:00 -5°C° 0 mm 6 mps 761 mmHg 93%
    08:00 -4°C° 0 mm 6 mps 761 mmHg 92%
    09:00 -3°C° 0 mm 7 mps 761 mmHg 91%
    10:00 -3°C° 0 mm 7 mps 760 mmHg 91%
    11:00 -4°C° 0 mm 7 mps 760 mmHg 91%
    12:00 -6°C° 0 mm 7 mps 760 mmHg 91%
    13:00 -7°C° 0 mm 7 mps 760 mmHg 91%
    14:00 -8°C° 0 mm 7 mps 760 mmHg 91%
    15:00 -9°C° 0 mm 7 mps 760 mmHg 92%
    16:00 -10°C° 0 mm 6 mps 760 mmHg 92%
    17:00 -10°C° 0 mm 6 mps 760 mmHg 92%
    18:00 -10°C° 0 mm 6 mps 760 mmHg 93%
    19:00 -10°C° 0.1 mm 6 mps 760 mmHg 93%
    20:00 -10°C° 0.1 mm 6 mps 759 mmHg 92%
    21:00 -10°C° 0.1 mm 6 mps 759 mmHg 92%
    22:00 -9°C° 0.4 mm 6 mps 759 mmHg 93%
    23:00 -9°C° 0.4 mm 6 mps 759 mmHg 94%

    31 January, Friday

    Time Temperature Precipitation Wind Pressure Humidity
    00:00 -7°C° 0.4 mm 5 mps 759 mmHg 95%
    01:00 -8°C° 0.4 mm 5 mps 759 mmHg 94%
    02:00 -8°C° 0.4 mm 5 mps 759 mmHg 94%
    03:00 -10°C° 0.4 mm 5 mps 758 mmHg 94%
    04:00 -10°C° 0.3 mm 5 mps 758 mmHg 94%
    05:00 -11°C° 0.3 mm 5 mps 758 mmHg 94%
    06:00 -11°C° 0.3 mm 5 mps 758 mmHg 94%
    07:00 -11°C° 0.5 mm 5 mps 758 mmHg 94%
    08:00 -12°C° 0.5 mm 5 mps 758 mmHg 94%
    09:00 -12°C° 0.5 mm 5 mps 757 mmHg 94%
    10:00 -12°C° 0.5 mm 5 mps 757 mmHg 94%
    11:00 -11°C° 0.5 mm 6 mps 756 mmHg 94%
    12:00 -11°C° 0.5 mm 6 mps 756 mmHg 94%
    13:00 -11°C° 1.3 mm 6 mps 755 mmHg 94%
    14:00 -11°C° 1.3 mm 6 mps 755 mmHg 94%
    15:00 -11°C° 1.3 mm 6 mps 755 mmHg 94%
    16:00 -11°C° 0.5 mm 5 mps 754 mmHg 94%
    17:00 -11°C° 0.5 mm 5 mps 754 mmHg 93%
    18:00 -10°C° 0.5 mm 5 mps 754 mmHg 93%
    19:00 -10°C° 0.1 mm 5 mps 754 mmHg 93%
    20:00 -8°C° 0.1 mm 5 mps 754 mmHg 92%
    21:00 -8°C° 0.1 mm 5 mps 753 mmHg 92%
    22:00 -7°C° 0 mm 5 mps 753 mmHg 93%
    23:00 -6°C° 0 mm 5 mps 753 mmHg 93%
    Show more